Reflectivity
-20 -20 -20 -20 -20 -20 -20 -20 -20 -20 -20 -20 -20 -20 -20 -20 -20 -20 -20 -20 -20 -20 -20 -20 -20 -20 -20 -20 -20 -20 -20 -20 -20 -20 -20 -20 -20 -20 -20 -20 -7 26 3
-20 -20 -20 -20 -20 -20 -20 -20 -20 -20 -20 -20 -20 -20 -20 -20 -20 -20 -20 -20 -20 -20 -20 -20 -20 -20 -20 -20 -20 -20 -20 -20 -20 -20 -20 -20 -20 -20 -20 -20 -19 -15 23
-20 -20 -20 -20 -20 -20 -20 -20 -20 -20 -20 -20 -20 -20 -20 -20 -20 -20 -20 -20 -20 -20 -20 -20 -20 -20 -20 -20 -20 -20 -20 -20 -20 -20 -11 -10 -20 -20 -20 -20 -20 -20 -17
-20 -20 -20 -20 -20 -20 -20 -20 -20 -20 -20 -20 -20 -20 -20 -20 -20 -20 -20 -20 -20 -20 -20 -20 -20 -20 -20 -20 -20 -20 -20 -20 -20 -20 -20 -20 -3 -2 -20 -20 -20 -20 -20
-20 -20 -20 -20 -20 -20 -20 -20 -20 -20 -20 -20 -20 -20 -20 -20 -20 -20 -20 -20 -20 -20 -20 -20 -20 -20 -20 -20 -20 -20 -20 -20 -20 -20 -20 -20 -20 -20 -20 -20 -20 -20 -20
-20 -20 -20 -20 -20 -20 -20 -20 -20 -20 -20 -20 -20 -20 -20 -20 -20 -20 -20 -20 -20 -20 -20 -20 -20 -20 -20 -20 -20 -20 -20 -20 -20 -20 -20 -20 -15 -10 -16 -12 -20 -20 -20
-20 -20 -20 -20 -20 -20 -20 -20 -20 -20 -20 -20 -20 -20 -20 -20 -20 -20 -20 -20 -20 -20 -20 -20 -20 -20 -20 -20 -20 -20 -20 -20 -20 -20 -20 -20 -20 -20 -20 -12 -18 -20 -20
-20 -20 -20 -20 -20 -20 -20 -20 -20 -20 -20 -20 -20 -20 -20 -20 -20 -20 -20 -20 -20 -20 -20 -20 -20 -20 -20 -20 -20 -20 -20 -20 -20 -20 -20 -20 -20 -20 -20 -20 8 -3 -20
-20 -20 -20 -20 -20 -20 -20 -20 -20 -20 -20 -20 -20 -20 -20 -20 -20 -20 -20 -20 -20 -20 -20 -20 -20 -20 -20 -20 -20 -20 -20 -20 -20 -20 -20 -20 -20 -20 -20 -20 -20 9 -5
-20 -20 -20 -20 -20 -20 -20 -20 -20 -20 -20 -20 -20 -20 -20 -20 -20 -20 -20 -20 -20 -20 -20 -20 -20 -20 -20 -20 -20 -20 -20 -20 -20 -20 -20 -20 -20 -20 -20 -20 -20 -20 11
-20 -20 -20 -20 -20 -20 -20 -20 -20 -20 -20 -20 -20 -20 -20 -20 -20 -20 -20 -20 -20 -20 -20 -20 -20 -20 -20 -20 -20 -20 -20 -20 -20 -20 -20 -20 -20 -20 -20 -20 -20 -20 -9
-20 -20 -20 -20 -20 -20 -20 -20 -20 -20 -20 -20 -20 -20 -20 -20 -20 -20 -20 -20 -20 -20 -20 -20 -20 -20 -20 -20 -20 -20 -20 -20 -20 -20 -20 -20 -20 -20 -20 -20 -20 -20 -20
-20 -20 -20 -20 -20 -20 -20 -20 -20 -20 -20 -20 -20 -20 -20 -20 -20 -20 -20 -20 -20 -20 -20 -20 -20 -20 -20 -20 -20 -20 -20 -20 -20 -20 -20 -20 -20 -20 -20 -20 -20 -20 -20
-20 -20 -20 -20 -20 -20 -20 -20 -20 -20 -20 -20 -20 -20 -20 -20 -20 -20 -20 -20 -20 -20 -20 -20 -19 -20 -20 -20 -20 -20 -20 -20 -20 -20 -20 -20 -20 -20 -20 -20 -20 -20 -20
-20 -20 -20 -20 -20 -20 -20 -20 -20 -20 -20 -20 -20 -20 -20 -20 -20 -20 -20 -20 -20 -20 -20 -20 -20 -20 -20 -20 -20 -20 -20 -20 -20 -20 -20 -20 -20 -20 -20 -20 -20 -12 6
-20 -20 -20 -20 -20 -20 -20 -20 -20 -20 -20 -20 -20 -20 -20 -20 -20 -20 -20 -20 -20 -20 -20 -20 -20 -20 -20 -20 -20 -20 -20 -20 -20 -20 -20 -20 -20 -20 -20 -20 -20 -20 -20
-20 -20 -20 -20 -20 -20 -20 -20 -20 -20 -20 -20 -20 -20 -20 -20 -20 -20 -20 -20 -20 -20 -20 -20 -20 -20 -20 -20 -20 -20 -20 -20 -20 -20 -20 -20 -20 -20 -20 -20 -20 -20 -20
-20 -20 -20 -20 -20 -20 -20 -20 -20 -20 -20 -20 -20 -20 -20 -20 -20 -20 -20 -20 -20 -20 -20 -20 -20 -20 -20 -20 -20 -20 -20 -20 -20 -20 -20 -20 -20 -20 -20 -20 -20 -20 -20
-20 -20 -20 -20 -20 -20 -20 -20 -20 -20 -20 -20 -20 -20 -20 -20 -20 -20 -20 -20 -20 -20 -20 -20 -20 -20 -20 -20 -20 -20 -20 -20 -20 -20 -20 -20 -20 -20 -20 -20 -20 -20 -20
-20 -20 -20 -20 -20 -20 -20 -20 -20 -20 -20 -20 -20 -20 -20 -20 -20 -20 -20 -20 -20 -20 -20 -20 -20 -20 -20 -20 -20 -20 2 -6 -20 -20 -20 -20 -20 -20 -20 -20 -20 -20 -20
-20 -20 -20 -20 -20 -20 -20 -20 -20 -20 -20 -20 -20 -20 -20 -20 -20 -20 -20 -20 -20 -20 -20 -20 -20 -20 -20 -20 -20 -20 -20 -19 -17 -20 -20 -20 -20 -20 -20 -20 -20 -20 -20
-20 -20 -20 -20 -20 -20 -20 -20 -20 -20 -20 -20 -20 -20 -20 -20 -20 -20 -20 -20 -20 -20 -20 -20 -20 -20 -20 -20 -20 -20 -20 -20 -20 -20 -20 -20 -20 -20 -20 -20 -20 -20 -20
-20 -20 -20 -20 -20 -20 -20 -20 -20 -20 -20 -20 -20 -20 -20 -20 -20 -20 -20 -20 -20 -20 -20 -20 -20 -20 -20 -20 -20 -20 -20 -20 -19 -20 -20 -20 -20 -20 0 -20 -20 -20 -20
-20 -20 -20 -20 -20 -20 -20 -20 -20 -20 -20 -20 -20 -20 -20 -20 -20 -20 -20 -20 -20 -20 -20 -20 -20 -20 -20 -20 -20 -20 -20 -20 -20 -20 -20 -20 -20 -20 -16 -20 -20 -20 -20
-20 -20 -20 -20 -20 -20 -20 -20 -20 -20 -20 -20 -20 -20 -20 -20 -20 -20 -20 -20 -20 -20 -20 -14 -11 -13 -20 -20 -20 -10 -20 -20 -20 -10 -8 -20 -20 -20 -20 -20 -20 -20 -20
-20 -20 -20 -20 -20 -20 -20 -20 -20 -20 -20 -20 -20 -20 -20 -20 -20 -20 -20 -20 -20 -12 7 7 9 3 5 13 7 6 10 12 11 18 3 -18 -20 -20 -20 -20 -20 -20 -20
Wind_Speed
6 5 5 6 6 4 6 6 6 5 5 3 3 2 2 3 3 4 6 6 6 6 5 4 5 5 5 4 5 4 3 3 3 4 9 4 4 1 4 4 5 4 5
6 5 6 5 5 5 5 5 5 5 4 2 1 1 1 1 1 2 5 6 6 6 5 5 5 5 4 6 5 5 4 3 3 2 3 5 5 7 4 4 2 4 2
9 6 5 5 4 4 4 5 5 5 5 4 2 3 2 3 4 4 4 5 6 6 6 6 5 6 4 4 5 5 6 4 3 5 2 4 2 9 4 4 3 6 3
5 5 5 4 4 3 4 5 4 4 4 5 5 4 2 1 2 2 3 4 6 6 6 6 6 5 4 5 4 5 3 3 4 4 2 3 2 3 6 3 8 4 6
8 8 6 5 4 4 3 3 4 5 5 5 4 3 3 2 2 2 5 6 5 6 6 6 6 5 4 5 6 6 5 3 2 2 3 2 2 3 3 8 5 7 4
7 6 5 5 4 3 3 2 4 3 5 4 4 4 3 3 3 3 4 4 3 4 5 5 5 6 5 5 5 5 6 4 4 3 3 2 2 5 5 7 12 8 6
7 7 6 4 3 3 2 1 2 2 2 3 4 3 2 2 3 3 3 5 3 2 5 5 6 4 5 6 6 5 6 5 3 4 3 3 3 3 4 7 8 6 5
6 6 6 4 3 3 4 4 3 1 1 2 2 2 2 2 3 3 3 4 3 4 4 5 5 6 6 6 5 4 4 5 5 7 4 4 4 3 3 3 6 10 8
6 7 6 6 5 5 6 4 2 1 1 2 2 2 2 3 4 6 4 4 5 4 6 6 6 6 6 6 6 4 6 5 5 6 5 4 3 3 4 3 3 5 10
5 2 2 3 4 5 2 3 4 4 3 4 4 4 5 6 6 5 7 7 6 6 6 7 7 7 6 6 6 5 6 6 5 5 6 6 4 4 3 4 4 4 7
5 5 5 6 5 4 2 4 5 5 6 5 6 6 7 7 7 6 7 8 7 7 7 7 7 7 7 7 6 6 7 7 7 6 6 8 6 5 4 3 4 4 4
5 5 6 6 8 8 7 5 5 5 5 5 5 7 7 9 9 10 10 9 8 6 7 7 7 7 7 7 7 9 8 8 9 9 7 7 6 6 6 5 6 5 5
5 5 6 6 5 5 5 5 5 5 6 6 6 7 7 8 11 13 12 7 7 7 7 7 8 9 8 7 7 8 9 9 9 9 9 8 6 6 6 6 7 5 6
5 4 5 5 5 5 5 5 5 4 5 5 5 6 7 9 11 11 9 7 7 6 9 13 11 9 9 8 8 8 9 9 9 9 8 8 7 7 7 7 7 8 5
6 4 4 6 6 7 7 7 6 6 7 7 6 7 8 9 10 9 12 12 9 11 12 10 8 8 8 7 7 8 9 9 9 9 10 9 10 14 13 7 7 6 6
5 5 5 5 6 6 6 6 7 7 6 7 9 10 10 11 11 12 13 11 11 11 10 9 8 9 8 15 18 15 8 10 10 10 9 9 13 14 18 17 17 12 6
4 6 6 7 7 7 7 7 8 7 7 8 10 11 11 11 12 12 12 13 11 11 9 8 7 10 10 20 21 19 8 9 10 10 10 9 8 12 8 13 17 16 17
6 6 6 7 8 7 7 8 7 7 8 9 10 11 11 12 13 13 13 13 11 10 10 10 9 9 10 22 22 20 10 9 10 11 11 10 12 10 9 7 7 9 9
7 8 8 7 7 8 9 8 9 10 11 12 13 13 12 13 14 15 15 13 12 12 10 9 10 10 12 22 22 18 8 8 11 11 11 11 12 16 18 8 8 8 9
7 8 9 9 7 11 10 9 10 10 11 13 14 14 12 13 15 15 15 14 13 13 11 11 10 15 13 19 23 19 7 8 9 10 10 20 16 20 20 9 8 9 8
9 9 9 9 10 11 10 12 12 13 14 15 15 14 13 14 14 14 14 14 13 13 12 11 12 12 13 14 24 24 11 9 9 8 8 7 18 21 20 17 6 9 8
10 10 9 10 11 10 9 13 14 15 15 15 15 15 15 12 12 15 14 14 13 12 12 11 11 10 12 17 20 24 22 19 10 10 8 9 19 20 19 15 14 18 16
10 8 7 11 11 10 9 13 15 14 14 13 15 14 14 13 15 15 14 12 11 10 10 9 9 10 10 9 20 24 24 21 13 9 11 18 19 21 16 18 17 16 6
9 9 8 11 14 13 11 8 13 13 13 13 13 13 15 17 14 12 12 11 11 10 10 9 9 10 9 9 8 7 7 15 12 11 8 11 14 13 10 9 7 4 4
10 9 10 12 14 10 11 10 10 11 14 15 14 14 12 13 13 12 11 10 11 12 11 10 9 10 11 11 17 16 10 7 9 11 5 4 4 6 7 5 5 4 4
10 9 10 8 11 11 12 12 13 12 13 14 12 11 12 11 11 12 12 18 23 26 26 27 21 13 24 28 27 26 25 26 25 12 9 9 8 9 9 7 7 7 9
Wind_Direction
184 169 150 123 109 75 80 54 60 36 45 20 10 11 350 344 5 13 11 4 352 351 352 344 353 355 351 330 325 306 310 310 330 335 329 324 330 198 292 210 210 230 268
166 145 102 89 74 76 71 73 70 52 39 33 350 331 326 342 19 352 7 13 7 8 17 11 357 2 355 349 342 344 322 310 3 6 291 339 332 351 347 340 332 331 299
165 145 118 92 95 90 85 79 65 58 47 34 23 7 15 13 8 355 353 351 5 21 25 17 9 359 5 355 335 345 357 323 323 5 331 348 324 332 327 344 359 340 340
127 121 123 137 136 102 85 85 80 75 57 43 51 58 75 8 319 311 315 342 10 12 14 13 12 358 348 358 340 351 334 350 330 332 8 267 275 315 318 324 329 341 343
142 148 160 144 114 107 108 95 81 59 47 54 62 62 41 344 311 335 355 353 347 3 4 6 0 356 346 340 346 345 345 331 307 317 321 321 313 264 231 297 310 313 311
148 143 146 132 117 88 80 75 77 58 47 53 47 56 41 351 1 343 347 338 334 335 349 351 349 341 339 337 328 325 331 319 312 308 301 242 278 303 293 293 299 297 303
145 145 144 137 149 139 93 112 80 58 56 54 44 27 354 349 345 326 314 327 324 315 319 333 337 330 322 324 326 325 318 315 312 298 293 296 276 259 264 289 296 275 302
156 160 159 166 196 183 160 152 146 135 29 24 355 348 337 325 313 306 309 304 294 290 286 300 313 312 316 315 314 312 307 305 307 305 288 271 260 277 266 257 293 299 284
160 165 179 197 210 224 221 193 166 193 256 261 271 288 287 297 281 292 288 286 291 287 293 299 297 293 295 297 303 299 297 303 297 296 291 289 272 249 261 264 242 273 293
164 133 30 330 282 264 254 197 207 223 241 243 235 241 245 248 252 261 266 260 261 264 274 283 281 286 282 279 284 289 290 294 290 289 298 297 293 288 260 261 259 242 271
92 80 49 14 360 360 24 347 339 318 294 275 271 262 260 254 249 245 251 248 249 248 254 259 267 271 274 276 275 272 274 273 280 288 281 285 289 294 295 280 265 263 249
116 86 80 48 37 38 36 19 356 338 322 314 311 297 295 296 293 279 261 253 245 254 254 261 264 266 266 266 266 277 280 273 277 275 273 273 290 297 291 284 277 266 258
78 66 52 47 44 25 10 4 0 340 316 312 311 309 305 305 300 291 281 276 268 274 283 276 266 263 256 256 252 252 264 262 262 264 264 257 267 276 283 286 284 280 284
63 88 46 17 1 357 353 340 321 306 298 294 310 308 290 290 294 289 273 257 251 259 277 271 261 257 260 258 254 257 259 255 259 257 248 252 251 256 266 273 278 278 275
59 52 14 352 342 336 330 328 323 323 318 314 298 291 291 294 294 283 284 272 270 276 272 259 255 257 257 258 251 250 254 255 260 254 253 251 245 246 252 268 273 267 277
23 354 331 316 303 296 294 295 295 294 295 295 293 291 297 298 298 295 292 283 275 267 263 261 254 261 267 273 270 272 253 252 252 259 256 243 253 258 262 266 268 274 280
302 292 289 288 292 292 287 287 282 283 279 276 279 280 285 286 288 291 288 288 278 276 260 263 268 268 270 278 278 276 262 248 253 251 257 258 253 247 236 254 267 272 273
253 266 263 262 261 255 261 264 266 266 268 275 277 282 288 287 291 289 285 280 279 268 269 266 260 260 268 277 278 277 269 256 254 253 253 245 259 243 239 243 243 245 248
257 248 249 252 254 262 267 271 282 281 284 280 280 279 278 286 291 289 284 278 282 276 256 254 258 259 266 277 280 276 262 256 255 255 251 243 251 255 252 245 248 257 258
260 268 272 275 276 273 271 268 272 272 275 280 283 285 285 284 287 284 280 280 279 273 268 266 262 261 267 272 278 279 270 255 260 263 246 249 247 254 257 242 236 254 252
281 284 288 281 279 278 281 282 284 281 279 284 281 277 278 281 280 282 278 282 277 273 263 263 268 267 270 271 274 278 271 259 262 258 257 245 247 256 258 244 217 235 260
284 279 279 277 279 279 274 273 274 273 278 275 273 275 277 278 281 282 278 280 277 267 266 266 270 272 269 268 268 272 271 267 263 262 256 248 252 251 245 247 244 257 265
276 270 258 279 284 277 256 265 273 286 284 276 281 285 286 285 289 282 279 281 268 265 262 265 271 271 272 268 271 273 276 275 271 262 259 264 259 256 246 248 257 261 253
274 269 273 285 286 287 282 265 288 290 291 293 293 296 296 294 291 288 284 280 276 268 266 267 270 272 271 270 270 264 259 268 270 268 266 269 267 248 237 252 257 226 215
289 287 285 284 285 288 290 294 296 301 301 298 300 298 293 291 291 285 283 281 277 271 273 269 268 273 270 268 270 271 265 256 249 263 243 241 238 247 250 246 230 214 220
286 287 290 278 290 297 301 306 304 300 297 298 300 295 296 293 291 290 288 279 281 284 283 283 282 277 275 277 278 278 276 278 281 279 265 253 239 238 244 236 233 241 245